Stations météo

réclame
Mon MeteoGroup
Passo Rolle, Italie (16021): Température de l'air & dewpoint: 09.08.2018 00:00:00 - 15.08.2018 00:00:00 (CEST)Passo Rolle, Italie (16021): Vitesse du vent: 09.08.2018 00:00:00 - 15.08.2018 00:00:00 (CEST)Passo Rolle, Italie (16021): Direction du vent: 09.08.2018 00:00:00 - 15.08.2018 00:00:00 (CEST)Passo Rolle, Italie (16021): visibility: 09.08.2018 00:00:00 - 15.08.2018 00:00:00 (CEST)
Date & Time tt [°C] td [°C] ff [km/h] ff [knt] dd vv [km]
15.08.2018 00:00:00 - - - - - -
14.08.2018 23:00:00 9,0 6,6 8 4 NNW 10
14.08.2018 22:00:00 - - - - - -
14.08.2018 21:00:00 - - - - - -
14.08.2018 20:00:00 9,4 7,5 11 6 WNW 20
14.08.2018 19:00:00 10,0 8,0 2 1 W 10
14.08.2018 18:00:00 10,0 8,0 5 3 SW 10
14.08.2018 17:00:00 11,0 7,7 15 8 N 10
14.08.2018 16:00:00 15,0 7,0 9 5 SE 10
14.08.2018 15:00:00 14,0 9,0 9 5 ESE 10
14.08.2018 14:00:00 11,2 8,4 9 5 ESE 15
14.08.2018 13:00:00 10,0 7,0 9 5 SE 10
14.08.2018 12:00:00 14,0 8,0 8 4 NE 10
14.08.2018 11:00:00 12,2 6,7 4 2 SSW 20
14.08.2018 10:00:00 13,0 4,0 8 4 W 10
14.08.2018 09:00:00 10,0 6,0 2 1 NNW 10
14.08.2018 08:00:00 9,0 5,2 2 1 NW 20
14.08.2018 07:00:00 8,0 5,0 9 5 N 10
14.08.2018 06:00:00 9,0 7,0 8 4 NNW 0,5
14.08.2018 05:00:00 8,8 7,2 8 4 NW 0,1
14.08.2018 04:00:00 - - - - - -
14.08.2018 03:00:00 - - - - - -
14.08.2018 02:00:00 10,0 7,6 5 3 WNW 0,4
14.08.2018 01:00:00 - - - - - -
14.08.2018 00:00:00 - - - - - -
13.08.2018 23:00:00 10,8 9,2 8 4 E 0,1
13.08.2018 22:00:00 - - - - - -
13.08.2018 21:00:00 - - - - - -
13.08.2018 20:00:00 12,6 10,0 11 6 ESE 10
13.08.2018 19:00:00 12,0 10,0 11 6 SSE 0,6
13.08.2018 18:00:00 13,0 11,0 9 5 SSE 10
13.08.2018 17:00:00 12,0 10,4 9 5 W 0,6
13.08.2018 16:00:00 14,0 9,0 21 11 SE 0,8
13.08.2018 15:00:00 14,0 9,0 21 11 SE 10
13.08.2018 14:00:00 14,8 7,6 21 11 SE 15
13.08.2018 13:00:00 16,0 8,0 24 13 SE 10
13.08.2018 12:00:00 15,0 8,0 16 9 SE 10
13.08.2018 11:00:00 13,8 8,6 15 8 ESE 15
13.08.2018 10:00:00 12,0 10,0 15 8 SE 10
13.08.2018 09:00:00 11,0 10,0 21 11 ESE 10
13.08.2018 08:00:00 9,8 8,4 11 6 ESE 20
13.08.2018 07:00:00 10,0 7,0 11 6 ESE 10
13.08.2018 06:00:00 10,0 6,0 11 6 ESE 10
13.08.2018 05:00:00 10,2 7,6 2 1 NNE 10
13.08.2018 04:00:00 - - - - - -
13.08.2018 03:00:00 - - - - - -
13.08.2018 02:00:00 10,4 9,2 11 6 SE 10
13.08.2018 01:00:00 - - - - - -
13.08.2018 00:00:00 - - - - - -
12.08.2018 23:00:00 10,6 9,0 9 5 ESE 10
12.08.2018 22:00:00 - - - - - -
12.08.2018 21:00:00 - - - - - -
12.08.2018 20:00:00 12,8 10,5 15 8 SE 15
12.08.2018 19:00:00 13,0 11,0 18 10 SE 10
12.08.2018 18:00:00 13,0 9,0 22 12 SE 10
12.08.2018 17:00:00 15,8 10,4 21 11 SE 20
12.08.2018 16:00:00 14,0 9,0 24 13 SE 10
12.08.2018 15:00:00 14,0 9,0 18 10 SE 10
12.08.2018 14:00:00 15,2 8,0 21 11 SE 15
12.08.2018 13:00:00 15,0 9,0 24 13 SE 10
12.08.2018 12:00:00 15,0 9,0 21 11 SE 10
12.08.2018 11:00:00 13,4 9,7 16 9 ESE 10
12.08.2018 10:00:00 12,0 9,0 18 10 SE 10
12.08.2018 09:00:00 10,0 9,0 21 11 SE 0,3
12.08.2018 08:00:00 10,0 8,1 18 10 SE 0,1
12.08.2018 07:00:00 10,0 8,0 16 9 SE 0,3
12.08.2018 06:00:00 10,0 8,0 15 8 ESE 0,3
12.08.2018 05:00:00 9,8 8,2 11 6 ESE 0,1
12.08.2018 04:00:00 - - - - - -
12.08.2018 03:00:00 - - - - - -
12.08.2018 02:00:00 10,0 8,4 15 8 ESE 0,3
12.08.2018 01:00:00 - - - - - -
12.08.2018 00:00:00 - - - - - -
11.08.2018 23:00:00 11,0 7,3 9 5 ESE 10
11.08.2018 22:00:00 - - - - - -
11.08.2018 21:00:00 - - - - - -
11.08.2018 20:00:00 12,8 12,0 24 13 S 3,0
11.08.2018 19:00:00 14,0 10,0 22 12 SE 10
11.08.2018 18:00:00 15,0 10,0 21 11 SE 10
11.08.2018 17:00:00 15,8 9,9 18 10 SE 20
11.08.2018 16:00:00 16,0 8,0 24 13 SE 10
11.08.2018 15:00:00 18,0 6,0 18 10 SE 10
11.08.2018 14:00:00 17,2 8,4 18 10 SE 20
11.08.2018 13:00:00 16,0 7,0 21 11 ESE 10
11.08.2018 12:00:00 16,0 7,0 21 11 SE 10
11.08.2018 11:00:00 15,2 7,5 15 8 SE 20
11.08.2018 10:00:00 14,0 8,0 9 5 ESE 10
11.08.2018 09:00:00 12,0 8,0 2 1 WNW 10
11.08.2018 08:00:00 10,4 6,5 2 1 NNE 20
11.08.2018 07:00:00 10,0 7,0 2 1 N 10
11.08.2018 06:00:00 10,0 8,0 4 2 WNW -
11.08.2018 05:00:00 10,4 8,5 4 2 W 0,3
11.08.2018 04:00:00 - - - - - -
11.08.2018 03:00:00 - - - - - -
11.08.2018 02:00:00 10,6 9,0 5 3 E 0,3
11.08.2018 01:00:00 - - - - - -
11.08.2018 00:00:00 - - - - - -
10.08.2018 23:00:00 12,0 11,1 18 10 SE 0,1
10.08.2018 22:00:00 - - - - - -
10.08.2018 21:00:00 - - - - - -
10.08.2018 20:00:00 13,6 12,0 16 9 SSE 12
10.08.2018 19:00:00 15,0 12,0 21 11 SSE 10
10.08.2018 18:00:00 15,0 12,0 21 11 SSE 10
10.08.2018 17:00:00 14,2 10,8 18 10 SE 20
10.08.2018 16:00:00 16,0 9,0 18 10 SSE 10
10.08.2018 15:00:00 16,0 9,0 21 11 S 10
10.08.2018 14:00:00 16,6 7,3 18 10 SE 30
10.08.2018 13:00:00 16,0 8,0 15 8 SSE 10
10.08.2018 12:00:00 15,0 9,0 18 10 SE 10
10.08.2018 11:00:00 14,0 8,6 11 6 SSE 30
10.08.2018 10:00:00 14,0 8,0 11 6 SSE 10
10.08.2018 09:00:00 13,0 9,0 9 5 SE 10
10.08.2018 08:00:00 12,0 9,9 5 3 ESE 30
10.08.2018 07:00:00 12,0 8,0 13 7 SSE 10
10.08.2018 06:00:00 12,0 8,0 11 6 ESE 10
10.08.2018 05:00:00 11,6 9,0 9 5 ESE 10
10.08.2018 04:00:00 - - - - - -
10.08.2018 03:00:00 - - - - - -
10.08.2018 02:00:00 12,0 11,2 9 5 E 10
10.08.2018 01:00:00 - - - - - -
10.08.2018 00:00:00 - - - - - -
09.08.2018 23:00:00 12,6 8,9 18 10 S 10
09.08.2018 22:00:00 - - - - - -
09.08.2018 21:00:00 - - - - - -
09.08.2018 20:00:00 15,4 6,7 16 9 SSE 20
09.08.2018 19:00:00 16,0 9,0 15 8 S 10
09.08.2018 18:00:00 14,0 11,0 11 6 S 10
09.08.2018 17:00:00 14,4 11,0 13 7 ESE 20
09.08.2018 16:00:00 15,0 7,0 9 5 S 10
09.08.2018 15:00:00 15,0 11,0 8 4 ESE 10
09.08.2018 14:00:00 15,8 11,6 16 9 ESE 20
09.08.2018 13:00:00 14,0 12,0 18 10 SE 10
09.08.2018 12:00:00 16,0 9,0 13 7 SSE 10
09.08.2018 11:00:00 16,4 9,8 21 11 SE 20
09.08.2018 10:00:00 15,0 11,0 15 8 SE 10
09.08.2018 09:00:00 13,0 12,0 5 3 E 10
09.08.2018 08:00:00 11,8 11,2 8 4 ESE 20
09.08.2018 07:00:00 11,0 10,0 8 4 SE 10
09.08.2018 06:00:00 11,0 9,0 13 7 ESE 10
09.08.2018 05:00:00 11,6 7,7 9 5 ESE 10
09.08.2018 04:00:00 - - - - - -
09.08.2018 03:00:00 - - - - - -
09.08.2018 02:00:00 12,6 2,5 4 2 E 10
09.08.2018 01:00:00 - - - - - -
09.08.2018 00:00:00 - - - - - -

tt = Température de l'air
td = dewpoint
ff = Vitesse du vent
dd = Direction du vent
vv = visibility

stations d'obs. à proximité